Weather History for Ft. Stewart, GA

Change the Weather History Date:

Monday, December 10, 2012

  Actual Average Record
Temperature  
Mean Temperature 69 °F -  
Max Temperature 78 °F 65 °F 82 °F (1972)
Min Temperature 60 °F 43 °F 25 °F (1968)
Cooling Degree Days 4    
Growing Degree Days 19 (Base 50)    
Moisture  
Dew Point 63 °F    
Average Humidity 95    
Maximum Humidity 100    
Minimum Humidity 44    
Precipitation  
Precipitation 0.00 in - - ()
Sea Level Pressure  
Sea Level Pressure 29.94 in    
Wind  
Wind Speed 3 mph (SW)    
Max Wind Speed 12 mph    
Max Gust Speed -    
Visibility 4 miles    
Events Fog    
Averages and records for this station are not official NWS values.
T = Trace of Precipitation, MM = Missing Value Source: NWS Daily Summary

Daily Weather History Graph

Daily Weather History Graph

Search for Another Location

Airport:

Trip Planner

Search our weather history database for the weather conditions in past years. The results will help you decide how hot, cold, wet, or windy it might be!

Date:

Astronomy

Dec. 10, 2012 Rise Set
Actual Time 7:16 AM EST 5:22 PM EST
Civil Twilight 6:49 AM EST 5:49 PM EST
Nautical Twilight 6:18 AM EST 6:19 PM EST
Astronomical Twilight 5:48 AM EST 6:49 PM EST
Moon 4:04 AM EST (12/10) 3:05 PM EST (12/10)
Length of Visible Light 11h 00m
Length of Day
10h 06m
Waning Crescent, 10% of the Moon is Illuminated
Dec 10
Waning Crescent
Dec 13
New
Dec 20
First Quarter
Dec 28
Full
Jan 4
Last Quarter

Hourly Weather History & Observations

Time (EST) Temp. Dew Point Humidity Pressure Visibility Wind Dir Wind Speed Gust Speed Precip Events Conditions
12:01 AM 62.6 °F 62.6 °F 100% 30.00 in 0.8 mi Calm Calm - N/A   Mostly Cloudy
12:03 AM 62.6 °F 62.6 °F 100% 30.00 in 0.8 mi Calm Calm - N/A   Mostly Cloudy
12:04 AM 60.8 °F 60.8 °F 100% 30.00 in 0.5 mi Calm Calm - N/A Fog Fog
12:09 AM 60.8 °F 60.8 °F 100% 30.00 in 0.8 mi SSW 3.5 mph - N/A   Mostly Cloudy
12:12 AM 60.8 °F 60.8 °F 100% 30.00 in 1.0 mi SSW 3.5 mph - N/A   Mostly Cloudy
12:14 AM 62.6 °F 62.6 °F 100% 30.00 in 1.2 mi SSW 3.5 mph - N/A   Overcast
12:16 AM 62.6 °F 62.6 °F 100% 30.00 in 1.8 mi SSW 3.5 mph - N/A   Overcast
12:17 AM 62.6 °F 62.6 °F 100% 30.00 in 2.0 mi SSW 3.5 mph - N/A   Overcast
12:19 AM 62.6 °F 62.6 °F 100% 29.99 in 3.0 mi SSW 3.5 mph - N/A   Overcast
12:36 AM 64.4 °F 64.4 °F 100% 29.99 in 10.0 mi SSW 3.5 mph - N/A   Scattered Clouds
12:39 AM 64.4 °F 64.4 °F 100% 29.99 in 10.0 mi SSW 3.5 mph - N/A   Scattered Clouds
12:42 AM 64.4 °F 64.4 °F 100% 29.99 in 8.0 mi SSW 3.5 mph - N/A   Mostly Cloudy
12:46 AM 62.6 °F 62.6 °F 100% 29.99 in 7.0 mi SSW 3.5 mph - N/A   Mostly Cloudy
12:48 AM 62.6 °F 62.6 °F 100% 29.98 in 7.0 mi SW 3.5 mph - N/A   Mostly Cloudy
12:55 AM 63.5 °F 63.5 °F 100% 29.98 in 6.0 mi SW 4.6 mph - N/A   Mostly Cloudy
1:22 AM 64.4 °F 64.4 °F 100% 29.97 in 4.0 mi SW 3.5 mph - N/A   Overcast
1:30 AM 66.2 °F 66.2 °F 100% 29.97 in 2.5 mi SW 5.8 mph - N/A   Overcast
1:35 AM 66.2 °F 66.2 °F 100% 29.97 in 1.8 mi SW 5.8 mph - N/A   Overcast
1:38 AM 66.2 °F 66.2 °F 100% 29.97 in 1.5 mi WSW 6.9 mph - N/A   Overcast
1:40 AM 66.2 °F 66.2 °F 100% 29.97 in 1.2 mi SW 5.8 mph - N/A   Overcast
1:44 AM 66.2 °F 66.2 °F 100% 29.97 in 1.0 mi SW 5.8 mph - N/A   Mist
1:47 AM 66.2 °F 66.2 °F 100% 29.97 in 1.0 mi SW 5.8 mph - N/A   Mist
1:48 AM 66.2 °F 66.2 °F 100% 29.97 in 1.0 mi SW 5.8 mph - N/A   Mist
1:51 AM 66.2 °F 66.2 °F 100% 29.97 in 1.2 mi SW 4.6 mph - N/A   Overcast
1:54 AM 66.2 °F 66.2 °F 100% 29.96 in 1.5 mi SW 5.8 mph - N/A   Overcast
1:55 AM 65.8 °F 65.8 °F 100% 29.96 in 1.5 mi SW 5.8 mph - N/A   Overcast
1:56 AM 66.2 °F 66.2 °F 100% 29.96 in 1.8 mi SW 5.8 mph - N/A   Overcast
1:57 AM 66.2 °F 66.2 °F 100% 29.96 in 2.0 mi SW 5.8 mph - N/A   Overcast
2:02 AM 66.2 °F 66.2 °F 100% 29.96 in 3.0 mi SW 5.8 mph - N/A   Overcast
2:46 AM 64.4 °F 64.4 °F 100% 29.96 in 4.0 mi West 5.8 mph - N/A   Mostly Cloudy
2:47 AM 64.4 °F 64.4 °F 100% 29.96 in 4.0 mi West 5.8 mph - N/A   Scattered Clouds
2:54 AM 64.4 °F 64.4 °F 100% 29.96 in 6.0 mi WSW 4.6 mph - N/A   Mostly Cloudy
2:55 AM 64.9 °F 64.9 °F 100% 29.96 in 6.0 mi WSW 4.6 mph - N/A   Mostly Cloudy
3:09 AM 64.4 °F 64.4 °F 100% 29.96 in 5.0 mi WSW 5.8 mph - N/A   Mostly Cloudy
3:29 AM 64.4 °F 64.4 °F 100% 29.96 in 4.0 mi SW 3.5 mph - N/A   Mostly Cloudy
3:36 AM 64.4 °F 64.4 °F 100% 29.96 in 3.0 mi WSW 5.8 mph - N/A   Mostly Cloudy
3:38 AM 64.4 °F 64.4 °F 100% 29.96 in 3.0 mi WSW 4.6 mph - N/A   Mostly Cloudy
3:39 AM 64.4 °F 64.4 °F 100% 29.96 in 2.5 mi WSW 5.8 mph - N/A   Mostly Cloudy
3:41 AM 64.4 °F 64.4 °F 100% 29.96 in 2.5 mi WSW 4.6 mph - N/A   Mostly Cloudy
3:45 AM 64.4 °F 64.4 °F 100% 29.96 in 1.8 mi SW 4.6 mph - N/A   Mostly Cloudy
3:52 AM 64.4 °F 64.4 °F 100% 29.96 in 2.0 mi SSW 4.6 mph - N/A   Mostly Cloudy
3:55 AM 64.2 °F 64.2 °F 100% 29.96 in 2.5 mi SW 4.6 mph - N/A   Mostly Cloudy
3:57 AM 64.4 °F 64.4 °F 100% 29.96 in 3.0 mi SW 4.6 mph - N/A   Mostly Cloudy
4:24 AM 64.4 °F 64.4 °F 100% 29.95 in 6.0 mi Calm Calm - N/A   Overcast
4:54 AM 62.6 °F 62.6 °F 100% 29.94 in 6.0 mi Calm Calm - N/A   Scattered Clouds
4:55 AM 63.1 °F 63.0 °F 99% 29.95 in 6.0 mi SW 3.5 mph - N/A   Scattered Clouds
4:58 AM 62.6 °F 62.6 °F 100% 29.95 in 5.0 mi SW 3.5 mph - N/A   Scattered Clouds
5:00 AM 62.6 °F 62.6 °F 100% 29.95 in 4.0 mi SW 3.5 mph - N/A   Mostly Cloudy
5:04 AM 62.6 °F 62.6 °F 100% 29.94 in 2.5 mi WSW 3.5 mph - N/A   Mostly Cloudy
5:06 AM 62.6 °F 62.6 °F 100% 29.94 in 2.5 mi WSW 4.6 mph - N/A   Mostly Cloudy
5:13 AM 62.6 °F 62.6 °F 100% 29.95 in 3.0 mi WSW 4.6 mph - N/A   Mostly Cloudy
5:29 AM 62.6 °F 62.6 °F 100% 29.95 in 2.5 mi Calm Calm - N/A   Overcast
5:35 AM 62.6 °F 62.6 °F 100% 29.95 in 1.8 mi Calm Calm - N/A   Overcast
5:41 AM 62.6 °F 62.6 °F 100% 29.95 in 1.5 mi Calm Calm - N/A   Overcast
5:44 AM 62.6 °F 62.6 °F 100% 29.95 in 1.2 mi SW 3.5 mph - N/A   Overcast
5:49 AM 62.6 °F 62.6 °F 100% 29.95 in 1.0 mi Calm Calm - N/A   Mist
5:55 AM 62.6 °F 62.6 °F 100% 29.95 in 1.0 mi SW 3.5 mph - N/A   Mist
5:56 AM 62.6 °F 62.6 °F 100% 29.95 in 1.2 mi Calm Calm - N/A   Overcast
6:04 AM 62.6 °F 62.6 °F 100% 29.95 in 1.5 mi South 3.5 mph - N/A   Overcast
6:08 AM 62.6 °F 62.6 °F 100% 29.95 in 1.8 mi South 3.5 mph - N/A   Overcast
6:09 AM 62.6 °F 62.6 °F 100% 29.95 in 2.0 mi Calm Calm - N/A   Overcast
6:33 AM 62.6 °F 62.6 °F 100% 29.95 in 1.8 mi WSW 4.6 mph - N/A   Overcast
6:35 AM 62.6 °F 62.6 °F 100% 29.95 in 1.5 mi WSW 4.6 mph - N/A   Overcast
6:37 AM 62.6 °F 62.6 °F 100% 29.95 in 1.2 mi WSW 4.6 mph - N/A   Overcast
6:38 AM 62.6 °F 62.6 °F 100% 29.95 in 1.0 mi WSW 4.6 mph - N/A   Mist
6:40 AM 62.6 °F 62.6 °F 100% 29.95 in 0.8 mi WSW 4.6 mph - N/A   Mist
6:44 AM 62.6 °F 62.6 °F 100% 29.95 in 0.5 mi WSW 4.6 mph - N/A Fog Fog
6:55 AM 62.8 °F 62.8 °F 100% 29.95 in 0.5 mi WSW 3.5 mph - N/A Fog Fog
7:21 AM 62.6 °F 62.6 °F 100% 29.94 in 0.5 mi Calm Calm - N/A Fog Fog
7:34 AM 62.6 °F 62.6 °F 100% 29.95 in 0.8 mi Calm Calm - N/A   Mist
7:37 AM 62.6 °F 62.6 °F 100% 29.95 in 0.8 mi Calm Calm - N/A   Mist
7:41 AM 62.6 °F 62.6 °F 100% 29.95 in 1.0 mi Calm Calm - N/A   Mist
7:43 AM 64.4 °F 64.4 °F 100% 29.94 in 1.0 mi Calm Calm - N/A   Mist
7:46 AM 64.4 °F 64.4 °F 100% 29.94 in 1.2 mi Calm Calm - N/A   Overcast
7:49 AM 64.4 °F 64.4 °F 100% 29.94 in 1.5 mi Calm Calm - N/A   Overcast
7:52 AM 64.4 °F 64.4 °F 100% 29.94 in 1.8 mi Calm Calm - N/A   Overcast
7:54 AM 64.4 °F 64.4 °F 100% 29.94 in 2.0 mi SW 3.5 mph - N/A   Overcast
7:55 AM 63.7 °F 63.7 °F 100% 29.94 in 2.0 mi SW 3.5 mph - N/A   Overcast
8:05 AM 64.4 °F 64.4 °F 100% 29.94 in 3.0 mi SSW 4.6 mph - N/A   Overcast
8:32 AM 64.4 °F 64.4 °F 100% 29.94 in 8.0 mi SSW 6.9 mph - N/A   Overcast
8:50 AM 64.4 °F 64.4 °F 100% 29.94 in 10.0 mi SSW 3.5 mph - N/A   Overcast
8:55 AM 65.3 °F 65.3 °F 100% 29.94 in 10.0 mi Variable 3.5 mph - N/A   Overcast
8:58 AM 66.2 °F 66.2 °F 100% 29.94 in 10.0 mi South 5.8 mph - N/A   Overcast
9:05 AM 66.2 °F 66.2 °F 100% 29.94 in 10.0 mi South 8.1 mph - N/A   Overcast
9:12 AM 66.2 °F 66.2 °F 100% 29.94 in 10.0 mi South 9.2 mph - N/A   Overcast
9:26 AM 66.2 °F 60.8 °F 83% 29.95 in 10.0 mi SSW 9.2 mph - N/A   Scattered Clouds
9:55 AM 67.5 °F 60.3 °F 78% 29.94 in 10.0 mi South 6.9 mph - N/A   Clear
10:55 AM 71.6 °F 58.1 °F 62% 29.94 in 10.0 mi WSW 9.2 mph - N/A   Clear
11:55 AM 74.5 °F 57.6 °F 55% 29.91 in 10.0 mi SSW 11.5 mph - N/A   Clear
12:55 PM 75.9 °F 56.8 °F 51% 29.88 in 10.0 mi SW 10.4 mph - N/A   Clear
1:55 PM 77.2 °F 55.9 °F 48% 29.85 in 10.0 mi Variable 5.8 mph - N/A   Mostly Cloudy
2:55 PM 78.8 °F 54.9 °F 44% 29.83 in 10.0 mi Variable 5.8 mph - N/A   Clear
3:55 PM 78.3 °F 55.0 °F 45% 29.81 in 10.0 mi SSE 8.1 mph - N/A   Partly Cloudy
4:55 PM 75.6 °F 54.3 °F 48% 29.81 in 10.0 mi Variable 3.5 mph - N/A   Scattered Clouds
5:55 PM 69.3 °F 55.9 °F 62% 29.82 in 10.0 mi Calm Calm - N/A   Partly Cloudy
6:55 PM 67.8 °F 58.6 °F 72% 29.81 in 10.0 mi SSE 5.8 mph - N/A   Partly Cloudy
7:55 PM 67.3 °F 61.5 °F 82% 29.81 in 10.0 mi South 3.5 mph - N/A   Clear
8:55 PM 65.3 °F 62.1 °F 89% 29.82 in 10.0 mi SSE 4.6 mph - N/A   Clear
9:17 PM 66.2 °F 62.6 °F 88% 29.82 in 5.0 mi SSE 4.6 mph - N/A   Clear
9:22 PM 66.2 °F 62.6 °F 88% 29.81 in 6.0 mi South 3.5 mph - N/A   Clear
9:36 PM 66.2 °F 62.6 °F 88% 29.82 in 4.0 mi Variable 3.5 mph - N/A   Clear
9:40 PM 66.2 °F 62.6 °F 88% 29.81 in 4.0 mi Variable 3.5 mph - N/A   Clear
9:55 PM 64.9 °F 63.5 °F 95% 29.81 in 10.0 mi South 3.5 mph - N/A   Clear
10:55 PM 65.1 °F 64.2 °F 97% 29.82 in 10.0 mi South 4.6 mph - N/A   Clear
11:55 PM 66.0 °F 64.9 °F 96% 29.83 in 10.0 mi South 5.8 mph - N/A   Clear